#timestamp,LO_Frequency,Hit,StdDev 
1523941215.2,286047001.2,N
1523941235.9,286047000.7,N
1523941255.7,286047002.4,N
1523941275.6,286047002.6,N
1523941295.4,286047002.4,N
1523941315.2,286047000.5,N
1523941335.1,286047001.1,N
1523941336.0,286047001.1,N
1523941355.8,286046999.7,N
1523941375.7,286047003.8,N
1523941395.5,286047003.9,N
1523941415.3,286047004.4,N
1523941435.2,286047001.7,N
1523941455.0,286047002.2,N
1523941455.9,286047002.2,N
1523941475.7,286047002.8,N
1523941495.6,286046999.7,N
1523941515.4,286047001.5,N
1523941535.3,286047000.2,N
1523941555.1,286047002.4,N
1523941556.0,286047002.4,N
1523941575.8,286046999.9,N
1523941595.7,286046998.9,N
1523941615.5,286046998.4,N
1523941635.4,286047000.9,N
1523941655.2,286046999.8,N
1523941675.0,286047000.1,N
1523941675.9,286047000.1,N
1523941695.8,286046999.9,N
1523941715.6,286047000.2,N
1523941735.4,286046998.9,N
1523941755.3,286046999.5,N
1523941775.1,286046998.6,N
1523941795.9,286046998.1,N
1523941815.7,286047001.1,N
1523941835.5,286047000.2,N
1523941855.4,286047002.3,N
1523941875.2,286047001.9,N
1523941895.0,286047001.7,N
1523941895.9,286047001.7,N
1523941915.8,286047001.6,N
1523941935.6,286047002.6,N
1523941955.5,286047000.7,N
1523941975.3,286047000.5,N
1523941995.1,286046998.6,N
1523942015.9,286046999.4,N
1523942035.7,286046996.7,N
1523942055.5,286046996.5,N
1523942075.4,286046999.0,N
1523942095.2,286046999.1,N
1523942115.1,286046996.5,N
1523942116.0,286046996.5,N
1523942135.8,286046997.2,N
1523942155.6,286046997.4,N
1523942175.5,286046997.1,N
1523942195.3,286046996.9,N
1523942215.2,286046999.0,N
1523942235.9,286047000.3,N
1523942255.7,286046999.5,N
1523942275.6,286046999.3,N
1523942295.4,286046996.7,N
1523942315.2,286046997.8,N
1523942335.1,286046997.7,N
1523942336.0,286046997.7,N
1523942355.8,286046998.0,N
1523942375.7,286046995.1,N
1523942395.5,286046995.3,N
1523942415.3,286046997.8,N
1523942435.2,286046997.1,N
1523942455.0,286046995.1,N
1523942455.9,286046995.1,N
1523942475.7,286046995.4,N
1523942495.6,286046997.3,N
1523942515.4,286046997.9,N
1523942535.3,286046995.6,Y
1523942555.1,286046999.3,P
1523942556.0,286046999.3,N
1523942575.8,286046999.3,N
1523942595.7,286046998.3,N
1523942615.5,286047001.2,N
1523942635.3,286046998.3,N
1523942655.2,286046998.5,N
1523942675.0,286046998.9,N
1523942675.9,286046998.9,N
1523942695.8,286047000.2,N
1523942715.6,286047002.3,N
1523942735.4,286046998.1,N
1523942755.3,286046998.8,N
1523942775.1,286046999.0,N
1523942795.9,286046999.0,N
1523942815.7,286046998.3,N
1523942835.5,286046998.6,N
1523942855.4,286047000.8,N
1523942875.2,286047000.8,N
1523942895.0,286046998.2,N
1523942895.9,286046998.2,N
1523942915.8,286046999.4,N
1523942935.6,286046998.5,N
1523942955.5,286046999.2,N
1523942975.3,286046998.3,N
1523942995.1,286046998.5,N
1523943015.9,286046998.4,N
1523943035.7,286046999.1,N
1523943055.6,286046999.3,N
1523943075.4,286046996.9,Y
1523943095.2,286047000.8,P
1523943115.1,286046999.1,N
1523943116.0,286046999.1,N
1523943135.8,286046999.6,N
1523943155.6,286046999.5,N
1523943175.5,286046997.0,Y
1523943195.3,286046997.4,P
1523943215.2,286046997.4,N
1523943235.9,286046998.9,N
1523943255.7,286046998.5,N
1523943275.6,286047001.0,N
1523943295.4,286047002.8,N
1523943315.2,286047000.1,N
1523943335.1,286047001.0,N
1523943336.0,286047001.0,N
1523943355.8,286046998.5,N
1523943375.7,286046998.3,N
1523943395.5,286046999.0,N
1523943415.3,286046999.0,N
1523943435.2,286046998.9,N
1523943455.0,286046998.9,N
1523943455.9,286046998.9,N
1523943475.8,286046996.8,N
1523943495.6,286046997.3,N
1523943515.4,286046995.1,Y
1523943535.3,286046997.4,P
1523943555.1,286046996.9,P
1523943575.9,286046998.7,N
1523943595.7,286046998.3,N
1523943615.5,286046999.6,N
1523943635.4,286046999.3,N
1523943655.2,286046998.1,N
1523943675.0,286046998.4,N
1523943675.9,286046998.4,N
1523943695.8,286047001.0,N
1523943715.6,286047000.7,N
1523943735.5,286047000.8,N
1523943755.3,286046998.3,N
1523943775.1,286046998.6,N
1523943795.9,286047001.1,N
1523943815.7,286046998.6,N
1523943835.6,286046998.1,N
1523943855.4,286046998.3,N
1523943875.2,286046998.9,N
1523943895.1,286046998.8,N
1523943896.0,286046998.8,N
1523943915.8,286046998.8,N
1523943935.6,286046999.1,N
1523943955.5,286046996.7,Y
1523943975.3,286047001.0,P
1523943995.2,286047002.7,N
1523944015.9,286047000.5,N
1523944035.7,286047000.4,N
1523944055.6,286047001.0,N
1523944075.4,286047002.4,N
1523944095.2,286047001.6,N
1523944115.1,286047002.2,N
1523944116.0,286047002.2,N
1523944135.8,286047002.2,N
1523944155.7,286047002.5,N
1523944175.5,286047002.4,N
1523944195.3,286047002.1,N
1523944215.2,286047000.2,N
1523944235.0,286046998.3,N
1523944235.9,286046998.3,N
1523944255.8,286047001.2,N
1523944275.6,286047000.0,N
1523944295.4,286047000.6,N
1523944315.3,286047000.7,N
1523944335.1,286047000.3,N
1523944355.8,286047000.4,N
1523944375.7,286047001.0,N
1523944395.5,286047000.3,N
1523944415.4,286047001.0,N
1523944435.2,286047000.4,N
1523944455.0,286047000.6,N
1523944455.9,286047000.6,N
1523944475.8,286047002.5,N
1523944495.6,286047001.7,N
1523944515.4,286047002.3,N
1523944535.3,286047002.3,N
1523944555.1,286047002.2,N
1523944575.9,286047001.3,N
1523944595.7,286047004.4,Y
1523944615.5,286047000.2,P
1523944635.4,286047002.3,P
1523944655.2,286047002.8,P
1523944675.1,286047000.9,N
1523944676.0,286047000.9,N
1523944695.8,286047001.0,N
1523944715.6,286047002.0,N
1523944735.5,286047002.4,N
1523944755.3,286047001.0,N
1523944775.1,286047001.2,N
1523944795.9,286047000.9,N
